PulseSat

PulseSat

MOLNIYA 1-88

Last updated on Dec. 9, 2018, 12:08 a.m. UTC

1 23420U 94081A   18341.58018938  .00000078  00000-0  26879-3 0  9992
2 23420  63.5976 142.2184 6058238 299.1021  13.8356  3.34491939203867
UTC
Height (km)
Latitude
Longitude
Inclination
Orbital Period

Next 30 passes for location: Hong Kong

Rise time Rise Azimuth (degrees) Set time Set Azimuth (degrees) Duration Max altitude (degrees)

No matching passes for this satellites

PulseSat

PulseSat is the new satellites software and hardware trackering solution by Pulsely.
Satellite Two Line Element Set source: US Air Force Space Command

Download PulseSat for iOS
© 2017 Pulsely Limited